Puerto Limon, Costa Rica

7:22 PM CST on October 23, 2017 (GMT -0600)
Limon International

Weather History for MRLM - May, 2013

Change the Weather History Date:

Wednesday, May 22, 2013

  Actual Average Record
Temperature  
Mean Temperature 78 °F -  
Max Temperature 88 °F 83 °F 88 °F (2013)
Min Temperature 68 °F 75 °F 68 °F (2013)
Cooling Degree Days 12    
Growing Degree Days 28 (Base 50)    
Moisture  
Dew Point 76 °F    
Average Humidity 80    
Maximum Humidity 100    
Minimum Humidity 66    
Precipitation  
Precipitation 0.00 in 0.36 in - ()
Sea Level Pressure  
Sea Level Pressure 29.84 in    
Wind  
Wind Speed 4 mph ()    
Max Wind Speed 12 mph    
Max Gust Speed -    
Visibility 6.9 miles    
Events Rain    
Averages and records for this station are not official NWS values.
T = Trace of Precipitation, MM = Missing Value Source: Averaged Metar Reports

Daily Weather History Graph

Daily Weather History Graph

Search for Another Location

Airport or City:

Trip Planner

Search our weather history database for the weather conditions in past years. The results will help you decide how hot, cold, wet, or windy it might be!

Date:

Astronomy

May. 22, 2013 Rise Set
Actual Time 5:10 AM CST 5:47 PM CST
Civil Twilight 4:47 AM CST 6:10 PM CST
Nautical Twilight 4:21 AM CST 6:36 PM CST
Astronomical Twilight 3:54 AM CST 7:03 PM CST
Moon 3:30 PM CST (5/22) 2:44 AM CST (5/22)
Length of Visible Light 13h 22m
Length of Day
12h 37m
Waxing Gibbous, 92% of the Moon is Illuminated
May 22
Waxing Gibbous
May 24
Full
May 31
Last Quarter
Jun 8
New
Jun 16
First Quarter

Hourly Weather History & Observations

Time (CST) Temp. Heat Index Dew Point Humidity Pressure Visibility Wind Dir Wind Speed Gust Speed Precip Events Conditions
6:00 AM 75 °F - 74 °F 95% 29.84 in 9 mi West 4.6 mph - -   Haze
6:00 AM 75.2 °F - 73.4 °F 94% 29.83 in - West 4.6 mph - N/A   Clear
7:00 AM 77.0 °F - 75.2 °F 94% 29.84 in 6.2 mi WSW 2.3 mph - N/A   Mostly Cloudy
8:00 AM 80.6 °F 86.2 °F 75.2 °F 84% 29.85 in 6.2 mi Calm Calm - N/A   Mostly Cloudy
9:00 AM 84 °F - 77 °F 73% 29.88 in 9 mi WNW 3.5 mph - -   Haze
9:00 AM 84.2 °F 94.1 °F 77.0 °F 79% 29.86 in 6.2 mi WNW 3.5 mph - N/A   Mostly Cloudy
10:00 AM 87.8 °F 97.6 °F 75.2 °F 66% 29.86 in 6.2 mi North 3.5 mph - N/A   Mostly Cloudy
11:00 AM 86.0 °F 96.9 °F 77.0 °F 74% 29.86 in 6.2 mi NNE 11.5 mph - N/A   Mostly Cloudy
12:00 PM 85 °F - 77 °F 72% 29.86 in 9 mi NE 10.4 mph - -   Overcast
12:00 PM 86.0 °F 96.9 °F 77.0 °F 74% 29.84 in 6.2 mi NE 10.4 mph - N/A   Scattered Clouds
1:00 PM 86.0 °F 96.9 °F 77.0 °F 74% 29.82 in 6.2 mi NNE 8.1 mph - N/A   Mostly Cloudy
2:00 PM 84.2 °F 94.1 °F 77.0 °F 79% 29.79 in 6.2 mi NE 6.9 mph - N/A   Mostly Cloudy
3:00 PM 85 °F - 76 °F 67% 29.79 in 9 mi East 4.6 mph - -   Overcast
3:00 PM 84.2 °F 92.3 °F 75.2 °F 74% 29.78 in 6.2 mi East 4.6 mph - N/A   Scattered Clouds
4:00 PM 82.4 °F 90.9 °F 77.0 °F 84% 29.78 in 6.2 mi West 3.5 mph - N/A   Scattered Clouds
5:00 PM 82.4 °F 90.9 °F 77.0 °F 84% 29.79 in 6.2 mi Calm Calm - N/A   Mostly Cloudy
5:12 PM 68.0 °F - 68.0 °F 100% 29.99 in 4.3 mi Calm Calm - N/A Rain Light Rain
6:00 PM 81 °F - 76 °F 80% 29.83 in 9 mi Calm Calm - -   Haze
6:00 PM - - - N/A% 29.82 in 6.2 mi Calm Calm - N/A   Mostly Cloudy